Location: Mexico
(19.4000°N, 99.1500°W)
Time: 15:04:09
(UTC-06:00)

ISS - Pass Details

Date: 12 June 2019
Orbit: 407 x 419 km, 51.6° (Epoch: 26 June)

Event Time Altitude Azimuth Distance (km) Brightness Sun altitude
Rises 19:39:59 0° 317° (NW) 2,340 1.7 -6.1°
Reaches altitude 10° 19:42:05 10° 314° (NW) 1,479 0.5 -6.5°
Maximum altitude 19:45:21 62° 233° (SW) 470 -3.4 -7.2°
Drops below altitude 10° 19:48:39 10° 151° (SSE) 1,481 -1.5 -7.9°
Enters shadow 19:49:12 - 150° (SSE) 1,705 -1.2 -8.0°
